Powrót do katalogu

FENGYUN 1C DEB

AktywnySSO
NORAD 31350·DEBRIS·🇨🇳 China

Wystrzelony May 10, 1999 z Taiyuan Satellite Launch Center

Loading…

Następne Przeloty (najbliższe 24 godziny)

TLE

Starzejące sięSource: Space-Track

Epoka: Sep 4, 2026, 18:08 UTC

1 31350U 99025BRE 26247.75559176  .00000545  00000-0  20071-3 0  9990
2 31350  98.9728  75.1227 0066873  66.2096 294.6081 14.35529950740699

Śledź FENGYUN 1C DEB w czasie rzeczywistym z AllMySat

Download on the App Store